Regional Weather Roundup
Issued by NWS

Home | Current Version | Previous Version | Text Only | Print | Product List | Glossary Off
Versions: 1 2 3 4 5 6 7 8 9 10 11 12 13 14 15 16 17 18 19 20 21 22 23 24 25 26 27 28 29 30 31 32 33 34 35 36

000
ASUS45 KSLC 220810
RWRUT

UTAH REGIONAL WEATHER ROUNDUP
NATIONAL WEATHER SERVICE SALT LAKE CITY UT
200 AM MDT WED OCT 22 2014

UTZ001>011-023>025-220900-

NORTHERN UTAH

CITY           SKY/WX    TMP DP  RH WIND       PRES   REMARKS
BRIGHAM CITY   CLEAR     40  31  70 CALM      30.12R
HILL AFB       CLEAR     45  33  61 N2        30.10S
LOGAN          CLEAR     34  29  82 CALM      30.13S
OGDEN          CLEAR     41  34  76 NW7       30.10R
PROVO AIRPORT  CLEAR     43  32  65 SE7       30.11R
SALT LAKE CITY CLEAR     42  35  76 W3        30.10R
VERNAL         PTCLDY    46  37  71 CALM      30.07R
WENDOVER       CLEAR     45  28  53 W3        30.12S
HEBER CITY     CLEAR     30  27  86 CALM      30.12S
WEST JORDAN    CLEAR     43  36  75 CALM      30.12R

$$

UTZ012>022-026-027-220900-

SOUTHERN/CENTRAL UTAH

CITY           SKY/WX    TMP DP  RH WIND       PRES   REMARKS
BLANDING       CLEAR     48  40  72 N6        30.15S
BRYCE CANYON   PTCLDY    32  30  92 W7        30.16S WCI  26
CEDAR CITY     PTCLDY    46  31  55 SW3       30.09R
DELTA          CLEAR     44  22  41 N7        30.09S
HANKSVILLE       N/A     50  34  53 CALM      30.01S
MILFORD        MOCLDY    45  26  47 N9        30.09R
MOAB/CYNLANDS  PTCLDY    55  41  59 N3        29.98R
PRICE          CLEAR     47  38  71 E3        30.06R
ST GEORGE      SUNNY     63  36  36 NE7       29.95S

$$

REGIONAL REPORTS     COLORADO/ARIZONA

CITY           SKY/WX    TMP DP  RH WIND       PRES   REMARKS
CRAIG, CO      CLOUDY    44  38  79 SE13      30.12S
GRAND JUNCTION MOCLDY    50  44  80 S7        30.04S
RIFLE          LGT RAIN  47  44  90 S10       30.15R
MONTROSE       MOCLDY    47  41  80 N5        30.11R
CORTEZ         PTCLDY    45  40  82 CALM      30.11R
PAGE, AZ       PTCLDY    61  37  41 CALM      30.00S
GRAND CANYON   PTCLDY    36  29  75 CALM      30.16S
KINGMAN        CLEAR     57  42  57 CALM      29.98R
FLAGSTAFF      PTCLDY    40  36  86 CALM      30.18F

$$

REGIONAL REPORTS    NEVADA/IDAHO/WYOMING

CITY           SKY/WX    TMP DP  RH WIND       PRES   REMARKS
LAS VEGAS, NV  PTCLDY    67  25  20 S7        29.85S
ELY            PTCLDY    29   9  43 S8        30.14R WCI  21
ELKO           PTCLDY    32  17  54 CALM      30.12R
POCATELLO, ID  CLEAR     36  31  82 SE6       30.12S WCI  31
BURLEY         CLEAR     36  30  79 SW5       30.10S WCI  32
EVANSTON, WY   CLEAR     36  24  62 CALM      30.14S
ROCK SPRINGS   PTCLDY    36  29  75 W9        30.13R WCI  29

$$



USA.gov is the U.S. government's official web portal to all federal, state and local government web resources and services.